EDT,Max TemperatureF,Mean TemperatureF,Min TemperatureF,Max Dew PointF,MeanDew PointF,Min DewpointF,Max Humidity, Mean Humidity, Min Humidity, Max Sea Level PressureIn, Mean Sea Level PressureIn, Min Sea Level PressureIn, Max VisibilityMiles, Mean VisibilityMiles, Min VisibilityMiles, Max Wind SpeedMPH, Mean Wind SpeedMPH, Max Gust SpeedMPH,PrecipitationIn, CloudCover, Events, WindDirDegrees
2013-7-1,79,74,71,74,72,70,100,90,82,30.04,29.96,29.89,10,6,0,17,6,28,1.11,7,Fog-Rain-Thunderstorm,168
2013-7-2,86,78,73,73,72,70,94,83,67,30.17,30.10,30.04,10,10,8,14,7,18,0.01,5,Rain,177
2013-7-3,91,78,73,75,72,69,94,81,63,30.24,30.20,30.15,10,10,7,14,7,20,0.27,3,Rain-Thunderstorm,194
2013-7-4,90,82,75,74,72,70,94,73,53,30.24,30.20,30.14,10,10,10,14,8,22,0.00,3,,220
2013-7-5,91,82,73,73,71,68,91,68,48,30.21,30.15,30.07,10,10,8,15,8,20,0.00,1,,221
2013-7-6,93,84,77,73,71,69,84,64,48,30.13,30.08,30.01,10,10,10,15,7,20,0.00,0,,246
2013-7-7,95,84,75,73,71,66,81,64,44,30.05,29.99,29.91,10,10,10,13,7,22,0.02,0,,228
2013-7-8,91,80,72,69,67,65,84,64,48,30.03,30.00,29.95,10,10,10,14,8,20,0.00,0,,258
2013-7-9,91,81,72,69,67,66,81,63,46,30.06,30.02,29.97,10,10,8,13,6,21,0.00,2,,242
2013-7-10,89,82,75,74,71,68,85,69,51,29.99,29.89,29.79,10,9,6,18,8,25,0.00,4,Rain,216
2013-7-11,87,80,75,73,68,61,84,67,46,29.91,29.84,29.79,10,10,9,13,7,,0.01,3,Rain,287
2013-7-12,78,74,68,68,65,61,90,73,57,30.10,30.02,29.92,10,8,3,13,7,21,0.12,6,Rain,52
2013-7-13,81,73,66,73,70,64,97,85,74,30.27,30.21,30.10,10,7,2,9,7,,0.08,8,Rain,70
2013-7-14,93,82,73,75,72,68,97,76,48,30.33,30.28,30.22,10,9,5,12,3,,0.02,4,,253
2013-7-15,96,84,75,72,70,67,82,60,41,30.23,30.18,30.12,10,10,10,13,5,20,0.00,1,,313
2013-7-16,95,84,75,70,65,61,76,53,35,30.19,30.15,30.12,10,10,10,10,5,17,0.00,1,Rain,357
2013-7-17,100,87,78,71,68,64,74,56,35,30.18,30.12,30.05,10,10,10,8,3,,0.00,2,,193
2013-7-18,98,88,78,73,70,67,79,55,36,30.05,30.00,29.94,10,10,8,10,4,18,0.00,0,,277
2013-7-19,100,90,81,75,73,69,76,57,39,29.96,29.88,29.78,10,10,8,18,9,29,0.00,0,,233
2013-7-20,93,86,80,75,70,62,69,59,42,29.82,29.77,29.71,10,10,8,18,11,28,0.00,1,,235
2013-7-21,90,82,75,74,65,58,90,62,37,29.95,29.90,29.83,10,10,8,7,3,,0.04,3,Rain,55
2013-7-22,84,80,75,75,72,67,94,82,69,29.95,29.89,29.80,10,6,3,9,5,17,0.23,6,Rain-Thunderstorm,71
2013-7-23,90,82,73,75,72,68,100,81,50,29.78,29.65,29.55,10,8,2,13,5,20,0.33,6,Rain,206
2013-7-24,82,76,68,70,62,50,87,63,44,29.93,29.74,29.61,10,10,10,14,5,21,0.00,2,,332
2013-7-25,68,66,64,58,53,47,75,64,54,30.05,30.01,29.94,10,10,10,12,9,18,0.00,8,Rain,24
2013-7-26,84,75,66,63,58,56,78,59,39,30.04,30.01,29.98,10,10,10,10,6,,0.00,4,Rain,330
2013-7-27,87,75,66,65,62,57,87,66,46,30.05,30.01,29.96,10,10,9,14,6,18,0.00,1,Fog,177
2013-7-28,84,75,70,71,67,61,93,78,56,29.98,29.95,29.91,10,8,2,14,4,31,0.26,5,Rain-Thunderstorm,158
2013-7-29,86,76,69,70,62,50,100,65,33,30.09,30.01,29.95,10,10,5,16,5,20,0.01,2,Fog-Rain,271
2013-7-30,81,71,62,58,55,53,78,55,40,30.16,30.12,30.09,10,10,10,14,5,18,0.00,1,,309
2013-7-31,84,73,64,63,58,56,78,59,39,30.16,30.09,30.03,10,10,10,10,3,,0.00,2,,194